Weather History for North Myrtle Beach, SC

Change the Weather History Date:

Thursday, January 2, 2014

  Actual Average Record
Temperature  
Mean Temperature 53 °F 46 °F  
Max Temperature 59 °F 56 °F 78 °F (1952)
Min Temperature 46 °F 36 °F 22 °F (2001)
Degree Days  
Heating Degree Days 12 19  
Month to date heating degree days 33 38  
Since 1 July heating degree days 859 906  
Cooling Degree Days 0 0  
Month to date cooling degree days 0 0  
Year to date cooling degree days 0 0  
Growing Degree Days 2 (Base 50)    
Moisture  
Dew Point 50 °F    
Average Humidity 92    
Maximum Humidity 100    
Minimum Humidity 83    
Precipitation  
Precipitation 0.64 in 0.11 in 1.02 in (2006)
Month to date precipitation 0.68 0.24  
Year to date precipitation 0.68 0.24  
Sea Level Pressure  
Sea Level Pressure 29.81 in    
Wind  
Wind Speed 5 mph (SW)    
Max Wind Speed 21 mph    
Max Gust Speed 31 mph    
Visibility 5 miles    
Events Fog , Rain    
T = Trace of Precipitation, MM = Missing Value Source: NWS Daily Summary

Daily Weather History Graph

Daily Weather History Graph

Search for Another Location

Airport:

Trip Planner

Search our weather history database for the weather conditions in past years. The results will help you decide how hot, cold, wet, or windy it might be!

Date:

Astronomy

Jan. 02, 2014 Rise Set
Actual Time 7:20 AM EST 5:18 PM EST
Civil Twilight 6:52 AM EST 5:45 PM EST
Nautical Twilight 6:21 AM EST 6:16 PM EST
Astronomical Twilight 5:51 AM EST 6:47 PM EST
Moon 8:05 AM EST (1/2) 7:06 PM EST (1/2)
Length of Visible Light 10h 53m
Length of Day
9h 57m
New Moon, 2% of the Moon is Illuminated
Jan 2
New Moon
Jan 7
First Quarter
Jan 15
Full
Jan 24
Last Quarter
Jan 30
New

Hourly Weather History & Observations

Time (EST) Temp. Windchill Dew Point Humidity Pressure Visibility Wind Dir Wind Speed Gust Speed Precip Events Conditions
12:53 AM 46.9 °F - 44.1 °F 90% 30.12 in 10.0 mi North 3.5 mph - N/A   Overcast
1:53 AM 46.9 °F - 44.1 °F 90% 30.11 in 10.0 mi Calm Calm - N/A   Overcast
2:17 AM 46.4 °F - 44.6 °F 93% 30.10 in 10.0 mi Calm Calm - N/A   Overcast
2:53 AM 46.9 °F - 44.1 °F 90% 30.10 in 8.0 mi Calm Calm - 0.01 in Rain Light Rain
3:53 AM 46.0 °F 43.9 °F 44.1 °F 93% 30.08 in 9.0 mi NNW 4.6 mph - 0.01 in Rain Light Rain
4:53 AM 46.0 °F - 45.0 °F 96% 30.05 in 8.0 mi Calm Calm - 0.02 in Rain Light Rain
5:53 AM 46.0 °F - 45.0 °F 96% 30.02 in 7.0 mi Calm Calm - 0.04 in Rain Light Rain
6:53 AM 46.9 °F - 45.0 °F 93% 30.01 in 5.0 mi Calm Calm - 0.02 in Rain Light Rain
7:53 AM 46.9 °F - 45.0 °F 93% 29.98 in 5.0 mi NE 3.5 mph - 0.03 in Rain Light Rain
8:53 AM 48.0 °F - 46.0 °F 93% 29.98 in 3.0 mi Calm Calm - 0.05 in Rain Light Rain
9:53 AM 48.9 °F - 48.0 °F 97% 29.95 in 3.0 mi Calm Calm - 0.05 in Rain Light Rain
10:37 AM 51.8 °F - 48.2 °F 88% 29.92 in 5.0 mi Calm Calm - 0.03 in Rain Light Rain
10:53 AM 50.0 °F - 48.9 °F 96% 29.91 in 8.0 mi SSE 4.6 mph - 0.03 in   Overcast
11:53 AM 52.0 °F - 50.0 °F 93% 29.87 in 4.0 mi SSE 5.8 mph - 0.03 in Rain Light Rain
12:08 PM 51.8 °F - 51.8 °F 100% 29.85 in 4.0 mi SE 3.5 mph - 0.01 in Rain Light Rain
12:53 PM 53.1 °F - 52.0 °F 96% 29.83 in 4.0 mi Calm Calm - 0.02 in Rain Light Rain
1:53 PM 53.1 °F - 52.0 °F 96% 29.79 in 2.5 mi Calm Calm - 0.07 in Rain Rain
2:09 PM 53.6 °F - 51.8 °F 94% 29.76 in 3.0 mi Calm Calm - 0.03 in Rain Light Rain
2:23 PM 53.6 °F - 51.8 °F 94% 29.75 in 4.0 mi SE 3.5 mph - 0.05 in Rain Light Rain
2:45 PM 53.6 °F - 53.6 °F 100% 29.76 in 4.0 mi SSW 4.6 mph - 0.08 in Rain Rain
2:49 PM 53.6 °F - 51.8 °F 94% 29.75 in 1.8 mi South 4.6 mph - 0.12 in Rain Heavy Rain
2:53 PM 54.0 °F - 52.0 °F 93% 29.75 in 1.5 mi South 3.5 mph - 0.13 in Rain Rain
2:59 PM 53.6 °F - 51.8 °F 94% 29.74 in 2.0 mi South 4.6 mph - 0.02 in Rain Rain
3:15 PM 53.6 °F - 51.8 °F 94% 29.74 in 4.0 mi South 4.6 mph - 0.05 in Rain Light Rain
3:53 PM 53.1 °F - 52.0 °F 96% 29.72 in 4.0 mi SSE 3.5 mph - 0.10 in Rain Light Rain
4:39 PM 53.6 °F - 53.6 °F 100% 29.69 in 1.8 mi SSW 3.5 mph - 0.02 in   Overcast
4:46 PM 53.6 °F - 51.8 °F 94% 29.69 in 0.2 mi SW 3.5 mph - 0.02 in Fog Fog
4:53 PM 54.0 °F - 53.1 °F 97% 29.69 in 0.2 mi Calm Calm - 0.02 in Fog Fog
5:53 PM 55.0 °F - 54.0 °F 96% 29.65 in 0.2 mi WSW 3.5 mph - 0.01 in Fog Fog
6:53 PM 55.9 °F - 55.0 °F 97% 29.63 in 0.2 mi SW 8.1 mph - 0.00 in Fog Fog
7:53 PM 57.9 °F - 57.0 °F 97% 29.63 in 2.0 mi WSW 23.0 mph 31.1 mph 0.00 in Rain Light Rain
7:57 PM 59.0 °F - 57.2 °F 94% 29.62 in 2.0 mi WSW 17.3 mph 31.1 mph 0.00 in Rain Light Rain
8:08 PM 57.2 °F - 55.4 °F 94% 29.64 in 2.0 mi West 15.0 mph 21.9 mph 0.00 in Rain Light Rain
8:53 PM 53.1 °F - 51.1 °F 93% 29.66 in 10.0 mi West 12.7 mph 17.3 mph 0.00 in   Overcast
9:53 PM 53.1 °F - 50.0 °F 89% 29.65 in 10.0 mi West 8.1 mph - N/A   Overcast
10:01 PM 53.6 °F - 50.0 °F 88% 29.65 in 10.0 mi West 10.4 mph - N/A   Overcast
10:53 PM 53.1 °F - 48.9 °F 86% 29.67 in 10.0 mi West 10.4 mph 18.4 mph N/A   Overcast
11:18 PM 53.6 °F - 48.2 °F 82% 29.67 in 10.0 mi West 9.2 mph 20.7 mph N/A   Overcast
11:44 PM 53.6 °F - 46.4 °F 77% 29.68 in 10.0 mi West 12.7 mph 21.9 mph N/A   Overcast
11:53 PM 52.0 °F - 46.0 °F 80% 29.68 in 10.0 mi West 10.4 mph 25.3 mph N/A   Mostly Cloudy